| time (UTC) | temp F | wind direction | speed MPH | gust MPH | rain 1hr in | rain 24hr in | rain mn in | humidity % | barometer mb |
| 20260505185704 | 56 | 269 | 2.0 | 6.0 | 0.00 | 0.00 | 0.00 | 91 | 1016.7 |
| 20260505185206 | 56 | 282 | 1.0 | 3.0 | 0.00 | 0.00 | 0.00 | 91 | 1016.7 |
| 20260505184704 | 55 | 314 | 2.0 | 3.0 | 0.00 | 0.00 | 0.00 | 91 | 1016.7 |
| 20260505184204 | 55 | 292 | 3.0 | 6.0 | 0.00 | 0.00 | 0.00 | 92 | 1016.6 |
| 20260505183705 | 55 | 265 | 2.0 | 3.0 | 0.00 | 0.00 | 0.00 | 92 | 1016.7 |
| 20260505183204 | 55 | 288 | 1.0 | 3.0 | 0.00 | 0.00 | 0.00 | 92 | 1016.8 |
| 20260505182704 | 55 | 310 | 1.0 | 3.0 | 0.00 | 0.00 | 0.00 | 93 | 1016.8 |
| 20260505182204 | 55 | 331 | 2.0 | 5.0 | 0.00 | 0.00 | 0.00 | 93 | 1016.8 |
| 20260505181704 | 55 | 345 | 2.0 | 6.0 | 0.00 | 0.00 | 0.00 | 93 | 1016.7 |
| 20260505181203 | 55 | 325 | 3.0 | 5.0 | 0.00 | 0.00 | 0.00 | 94 | 1016.7 |
| 20260505180705 | 55 | 13 | 3.0 | 5.0 | 0.00 | 0.00 | 0.00 | 94 | 1016.6 |
| 20260505180203 | 55 | 348 | 3.0 | 5.0 | 0.00 | 0.00 | 0.00 | 94 | 1016.6 |
| 20260505175205 | 54 | 316 | 1.0 | 3.0 | 0.00 | 0.00 | 0.00 | 94 | 1016.5 |
| 20260505174204 | 54 | 317 | 1.0 | 3.0 | 0.00 | 0.00 | 0.00 | 95 | 1016.4 |
| 20260505173204 | 54 | 35 | 2.0 | 3.0 | 0.00 | 0.00 | 0.00 | 96 | 1016.3 |
| 20260505172703 | 54 | 27 | 2.0 | 3.0 | 0.00 | 0.00 | 0.00 | 96 | 1016.3 |
| 20260505172204 | 54 | 331 | 1.0 | 3.0 | 0.00 | 0.00 | 0.00 | 96 | 1016.3 |
| 20260505171704 | 54 | 329 | 2.0 | 3.0 | 0.00 | 0.00 | 0.00 | 96 | 1016.3 |
| 20260505171204 | 54 | 32 | 1.0 | 3.0 | 0.00 | 0.00 | 0.00 | 96 | 1016.3 |
| 20260505170704 | 54 | 305 | 1.0 | 3.0 | 0.00 | 0.00 | 0.00 | 96 | 1016.3 |
| 20260505170204 | 53 | 265 | 2.0 | 3.0 | 0.00 | 0.00 | 0.00 | 96 | 1016.3 |
| 20260505165704 | 53 | 307 | 2.0 | 3.0 | 0.00 | 0.00 | 0.00 | 96 | 1016.3 |
| 20260505165204 | 54 | 270 | 2.0 | 3.0 | 0.00 | 0.00 | 0.00 | 96 | 1016.3 |
| 20260505163705 | 54 | 314 | 2.0 | 3.0 | 0.00 | 0.00 | 0.00 | 96 | 1016.3 |
| 20260505162205 | 53 | 281 | 2.0 | 3.0 | 0.00 | 0.00 | 0.00 | 96 | 1016.3 |
| 20260505161704 | 53 | 272 | 2.0 | 3.0 | 0.00 | 0.00 | 0.00 | 96 | 1016.2 |
| 20260505161204 | 53 | 282 | 2.0 | 3.0 | 0.00 | 0.00 | 0.00 | 96 | 1016.2 |
| 20260505160704 | 53 | 275 | 2.0 | 6.0 | 0.00 | 0.00 | 0.00 | 96 | 1016.2 |
| 20260505160205 | 53 | 272 | 2.0 | 3.0 | 0.00 | 0.00 | 0.00 | 96 | 1016.1 |
| 20260505152704 | 53 | 293 | 1.0 | 3.0 | 0.00 | 0.00 | 0.00 | 96 | 1015.9 |
| 20260505152204 | 53 | 309 | 2.0 | 3.0 | 0.00 | 0.00 | 0.00 | 96 | 1015.9 |
| 20260505151704 | 53 | 281 | 1.0 | 2.0 | 0.00 | 0.00 | 0.00 | 96 | 1015.9 |
| 20260505151204 | 53 | 280 | 0.0 | 0.0 | 0.00 | 0.00 | 0.00 | 96 | 1015.8 |
| 20260505150704 | 53 | 267 | 0.0 | 0.0 | 0.00 | 0.00 | 0.00 | 96 | 1015.8 |
| 20260505150203 | 53 | 191 | 0.0 | 0.0 | 0.00 | 0.00 | 0.00 | 96 | 1015.8 |
| 20260505140203 | 52 | 179 | 0.0 | 0.0 | 0.00 | 0.00 | 0.00 | 96 | 1015.2 |
| 20260505130204 | 52 | 244 | 1.0 | 2.0 | 0.00 | 0.00 | 0.00 | 95 | 1014.4 |
| 20260505124704 | 52 | 188 | 0.0 | 1.0 | 0.00 | 0.00 | 0.00 | 96 | 1014.3 |
| 20260505124205 | 52 | 188 | 0.0 | 1.0 | 0.00 | 0.00 | 0.00 | 96 | 1014.4 |
| 20260505123704 | 52 | 187 | 0.0 | 1.0 | 0.00 | 0.00 | 0.00 | 96 | 1014.3 |
| 20260505123204 | 52 | 187 | 0.0 | 2.0 | 0.00 | 0.00 | 0.00 | 96 | 1014.3 |
| 20260505122704 | 52 | 253 | 1.0 | 3.0 | 0.00 | 0.00 | 0.00 | 96 | 1014.2 |
| 20260505122205 | 52 | 274 | 1.0 | 2.0 | 0.00 | 0.00 | 0.00 | 96 | 1014.2 |
| 20260505121705 | 52 | 269 | 2.0 | 3.0 | 0.00 | 0.00 | 0.00 | 96 | 1014.2 |
| 20260505121203 | 51 | 282 | 2.0 | 3.0 | 0.00 | 0.00 | 0.00 | 96 | 1014.1 |
| 20260505120704 | 51 | 271 | 1.0 | 3.0 | 0.00 | 0.00 | 0.00 | 96 | 1014.1 |
| 20260505120205 | 51 | 289 | 2.0 | 3.0 | 0.00 | 0.00 | 0.00 | 96 | 1014.1 |
| 20260505115206 | 51 | 260 | 1.0 | 3.0 | 0.00 | 0.00 | 0.00 | 96 | 1014.0 |
| 20260505114704 | 51 | 273 | 1.0 | 2.0 | 0.00 | 0.00 | 0.00 | 96 | 1014.0 |
| 20260505114204 | 51 | 243 | 0.0 | 1.0 | 0.00 | 0.00 | 0.00 | 96 | 1013.9 |
| 20260505113705 | 51 | 257 | 0.0 | 2.0 | 0.00 | 0.00 | 0.00 | 96 | 1013.8 |
| 20260505112204 | 50 | 223 | 0.0 | 0.0 | 0.00 | 0.00 | 0.00 | 96 | 1013.6 |
| 20260505111705 | 50 | 223 | 1.0 | 3.0 | 0.00 | 0.00 | 0.00 | 96 | 1013.6 |
| 20260505111205 | 50 | 210 | 1.0 | 2.0 | 0.00 | 0.00 | 0.00 | 96 | 1013.5 |
| 20260505110704 | 50 | 225 | 1.0 | 2.0 | 0.00 | 0.00 | 0.00 | 96 | 1013.5 |
| 20260505110204 | 49 | 195 | 1.0 | 2.0 | 0.00 | 0.00 | 0.00 | 96 | 1013.5 |
| 20260505102204 | 46 | 215 | 1.0 | 2.0 | 0.00 | 0.00 | 0.00 | 95 | 1013.2 |
| 20260505101704 | 46 | 215 | 1.0 | 2.0 | 0.00 | 0.00 | 0.00 | 95 | 1013.1 |
| 20260505101205 | 46 | 202 | 1.0 | 2.0 | 0.00 | 0.00 | 0.00 | 95 | 1013.1 |
| 20260505100204 | 46 | 202 | 1.0 | 2.0 | 0.00 | 0.00 | 0.00 | 94 | 1013.1 |
| 20260505095704 | 46 | 202 | 0.0 | 1.0 | 0.00 | 0.00 | 0.00 | 94 | 1013.1 |
| 20260505095205 | 46 | 202 | 0.0 | 0.0 | 0.00 | 0.00 | 0.00 | 94 | 1013.1 |
| 20260505094704 | 46 | 202 | 0.0 | 3.0 | 0.00 | 0.00 | 0.00 | 94 | 1013.1 |
| 20260505093705 | 47 | 194 | 1.0 | 2.0 | 0.00 | 0.00 | 0.00 | 95 | 1013.0 |
| 20260505093204 | 47 | 206 | 0.0 | 1.0 | 0.00 | 0.00 | 0.00 | 94 | 1013.0 |
| 20260505092705 | 47 | 206 | 1.0 | 3.0 | 0.00 | 0.00 | 0.00 | 95 | 1013.0 |
| 20260505092205 | 48 | 206 | 1.0 | 2.0 | 0.00 | 0.00 | 0.00 | 94 | 1012.9 |
| 20260505091704 | 48 | 194 | 1.0 | 2.0 | 0.00 | 0.00 | 0.00 | 94 | 1012.9 |
| 20260505091205 | 49 | 209 | 1.0 | 2.0 | 0.00 | 0.00 | 0.00 | 94 | 1012.9 |
| 20260505090704 | 49 | 215 | 1.0 | 2.0 | 0.00 | 0.00 | 0.00 | 95 | 1012.9 |
| 20260505090205 | 49 | 224 | 0.0 | 2.0 | 0.00 | 0.00 | 0.00 | 95 | 1012.8 |
| 20260505085705 | 48 | 227 | 1.0 | 2.0 | 0.00 | 0.00 | 0.00 | 95 | 1012.8 |
| 20260505085206 | 48 | 227 | 1.0 | 3.0 | 0.00 | 0.00 | 0.00 | 94 | 1012.8 |
| 20260505084704 | 48 | 211 | 1.0 | 2.0 | 0.00 | 0.00 | 0.00 | 94 | 1012.7 |
| 20260505084204 | 48 | 211 | 1.0 | 2.0 | 0.00 | 0.00 | 0.00 | 94 | 1012.7 |
| 20260505083706 | 48 | 228 | 0.0 | 0.0 | 0.00 | 0.00 | 0.00 | 94 | 1012.7 |
| 20260505083204 | 48 | 228 | 1.0 | 2.0 | 0.00 | 0.00 | 0.00 | 93 | 1012.7 |
| 20260505082205 | 49 | 194 | 1.0 | 2.0 | 0.00 | 0.00 | 0.00 | 93 | 1012.6 |
| 20260505081204 | 50 | 223 | 0.0 | 2.0 | 0.00 | 0.00 | 0.00 | 93 | 1012.5 |
| 20260505080704 | 50 | 223 | 0.0 | 1.0 | 0.00 | 0.00 | 0.00 | 93 | 1012.6 |
| 20260505080204 | 50 | 223 | 0.0 | 1.0 | 0.00 | 0.00 | 0.00 | 93 | 1012.5 |
| 20260505075704 | 51 | 223 | 0.0 | 1.0 | 0.00 | 0.00 | 0.00 | 93 | 1012.5 |
| 20260505075204 | 51 | 223 | 0.0 | 1.0 | 0.00 | 0.00 | 0.00 | 93 | 1012.4 |
| 20260505074704 | 51 | 223 | 0.0 | 0.0 | 0.00 | 0.00 | 0.00 | 93 | 1012.4 |
| 20260505073704 | 51 | 223 | 1.0 | 3.0 | 0.00 | 0.00 | 0.00 | 93 | 1012.3 |
| 20260505072704 | 52 | 244 | 2.0 | 3.0 | 0.00 | 0.00 | 0.00 | 93 | 1012.2 |
| 20260505071703 | 52 | 265 | 2.0 | 3.0 | 0.00 | 0.00 | 0.00 | 93 | 1012.1 |
| 20260505071203 | 52 | 269 | 2.0 | 3.0 | 0.00 | 0.00 | 0.00 | 93 | 1012.1 |
| 20260505070705 | 52 | 249 | 3.0 | 6.0 | 0.00 | 0.00 | 0.00 | 93 | 1012.0 |
| 20260505070204 | 52 | 263 | 3.0 | 8.0 | 0.00 | 0.00 | 0.00 | 93 | 1011.9 |
| 20260505065205 | 52 | 280 | 3.0 | 7.0 | 0.00 | 0.00 | 0.00 | 92 | 1011.8 |
| 20260505064204 | 52 | 267 | 4.0 | 8.0 | 0.00 | 0.00 | 0.00 | 92 | 1011.7 |
| 20260505063704 | 52 | 257 | 3.0 | 7.0 | 0.00 | 0.00 | 0.00 | 92 | 1011.6 |
| 20260505062204 | 53 | 270 | 7.0 | 10.0 | 0.00 | 0.00 | 0.00 | 92 | 1011.6 |
| 20260505061704 | 53 | 283 | 5.0 | 12.0 | 0.00 | 0.00 | 0.00 | 92 | 1011.6 |
| 20260505060205 | 53 | 272 | 4.0 | 9.0 | 0.00 | 0.00 | 0.00 | 92 | 1011.4 |
| 20260505055205 | 53 | 273 | 4.0 | 8.0 | 0.00 | 0.00 | 0.00 | 92 | 1011.3 |
| 20260505054704 | 53 | 277 | 6.0 | 9.0 | 0.00 | 0.00 | 0.00 | 92 | 1011.2 |
| 20260505054204 | 53 | 256 | 6.0 | 10.0 | 0.00 | 0.00 | 0.00 | 92 | 1011.2 |
| 20260505053705 | 53 | 252 | 6.0 | 10.0 | 0.00 | 0.00 | 0.00 | 91 | 1011.2 |
| 20260505053204 | 53 | 268 | 7.0 | 13.0 | 0.00 | 0.00 | 0.00 | 91 | 1011.1 |
| 20260505052704 | 53 | 259 | 7.0 | 12.0 | 0.00 | 0.00 | 0.00 | 91 | 1011.1 |
| 20260505052205 | 53 | 259 | 8.0 | 13.0 | 0.00 | 0.00 | 0.00 | 91 | 1011.1 |
| 20260505051705 | 53 | 262 | 10.0 | 15.0 | 0.00 | 0.00 | 0.00 | 91 | 1010.9 |
| 20260505051203 | 53 | 273 | 9.0 | 18.0 | 0.00 | 0.00 | 0.00 | 91 | 1010.9 |
| 20260505050704 | 53 | 272 | 10.0 | 17.0 | 0.00 | 0.00 | 0.00 | 91 | 1010.8 |
| 20260505050204 | 53 | 272 | 10.0 | 17.0 | 0.00 | 0.00 | 0.00 | 90 | 1010.7 |
| 20260505041704 | 54 | 266 | 10.0 | 15.0 | 0.00 | 0.00 | 0.00 | 88 | 1010.2 |
| 20260505041203 | 54 | 267 | 10.0 | 14.0 | 0.00 | 0.00 | 0.00 | 87 | 1010.1 |
| 20260505040705 | 54 | 264 | 9.0 | 15.0 | 0.00 | 0.00 | 0.00 | 87 | 1010.1 |
| 20260505040204 | 54 | 272 | 12.0 | 16.0 | 0.00 | 0.00 | 0.00 | 87 | 1010.2 |
| 20260505035703 | 55 | 275 | 10.0 | 16.0 | 0.00 | 0.00 | 0.00 | 86 | 1010.1 |
| 20260505035205 | 55 | 259 | 8.0 | 14.0 | 0.00 | 0.00 | 0.00 | 85 | 1010.0 |
| 20260505034705 | 55 | 266 | 9.0 | 17.0 | 0.00 | 0.00 | 0.00 | 85 | 1010.1 |
| 20260505034204 | 55 | 266 | 10.0 | 16.0 | 0.00 | 0.00 | 0.00 | 84 | 1010.0 |
| 20260505033705 | 56 | 267 | 10.0 | 14.0 | 0.00 | 0.00 | 0.00 | 84 | 1009.9 |
| 20260505033204 | 56 | 274 | 9.0 | 13.0 | 0.00 | 0.00 | 0.00 | 83 | 1009.9 |
| 20260505032705 | 56 | 264 | 10.0 | 15.0 | 0.00 | 0.00 | 0.00 | 82 | 1009.9 |
| 20260505032204 | 56 | 261 | 9.0 | 14.0 | 0.00 | 0.00 | 0.00 | 82 | 1009.9 |
| 20260505031704 | 57 | 271 | 10.0 | 15.0 | 0.00 | 0.00 | 0.00 | 81 | 1009.9 |
| 20260505031203 | 57 | 271 | 11.0 | 17.0 | 0.00 | 0.00 | 0.00 | 81 | 1009.9 |
| 20260505030204 | 57 | 259 | 8.0 | 14.0 | 0.00 | 0.00 | 0.00 | 80 | 1009.8 |
| 20260505025703 | 58 | 272 | 10.0 | 15.0 | 0.00 | 0.00 | 0.00 | 79 | 1009.7 |
| 20260505024704 | 58 | 263 | 12.0 | 16.0 | 0.00 | 0.00 | 0.00 | 77 | 1009.7 |
| 20260505024204 | 59 | 264 | 10.0 | 15.0 | 0.00 | 0.00 | 0.00 | 76 | 1009.7 |
| 20260505023704 | 59 | 272 | 10.0 | 16.0 | 0.00 | 0.00 | 0.00 | 75 | 1009.7 |
| 20260505023205 | 60 | 270 | 9.0 | 14.0 | 0.00 | 0.00 | 0.00 | 74 | 1009.7 |
| 20260505022704 | 60 | 276 | 10.0 | 15.0 | 0.00 | 0.00 | 0.00 | 73 | 1009.7 |
| 20260505021704 | 62 | 278 | 9.0 | 13.0 | 0.00 | 0.00 | 0.00 | 71 | 1009.7 |
| 20260505021205 | 62 | 268 | 8.0 | 14.0 | 0.00 | 0.00 | 0.00 | 71 | 1009.7 |
| 20260505020704 | 62 | 272 | 7.0 | 12.0 | 0.00 | 0.00 | 0.00 | 71 | 1009.8 |
| 20260505015704 | 62 | 268 | 9.0 | 14.0 | 0.00 | 0.00 | 0.00 | 71 | 1010.0 |
| 20260505015206 | 62 | 274 | 10.0 | 18.0 | 0.00 | 0.00 | 0.00 | 71 | 1010.0 |
| 20260505014704 | 62 | 269 | 13.0 | 17.0 | 0.00 | 0.00 | 0.00 | 70 | 1010.0 |
| 20260505014204 | 63 | 270 | 10.0 | 16.0 | 0.00 | 0.00 | 0.00 | 69 | 1010.0 |
| 20260505013707 | 63 | 276 | 12.0 | 16.0 | 0.00 | 0.00 | 0.00 | 70 | 1010.1 |
| 20260505013204 | 63 | 280 | 10.0 | 17.0 | 0.00 | 0.00 | 0.00 | 69 | 1010.1 |
| 20260505012704 | 63 | 279 | 13.0 | 20.0 | 0.00 | 0.00 | 0.00 | 67 | 1010.1 |
| 20260505012204 | 64 | 277 | 11.0 | 15.0 | 0.00 | 0.00 | 0.00 | 68 | 1010.1 |
| 20260505011204 | 64 | 287 | 12.0 | 20.0 | 0.00 | 0.00 | 0.00 | 67 | 1010.2 |
| 20260505010204 | 65 | 283 | 12.0 | 17.0 | 0.00 | 0.00 | 0.00 | 64 | 1010.3 |
| 20260505005704 | 65 | 269 | 12.0 | 18.0 | 0.00 | 0.00 | 0.00 | 65 | 1010.3 |
| 20260505005205 | 66 | 276 | 10.0 | 15.0 | 0.00 | 0.00 | 0.00 | 64 | 1010.3 |
| 20260505004203 | 66 | 286 | 10.0 | 17.0 | 0.00 | 0.00 | 0.00 | 65 | 1010.2 |
| 20260505003704 | 65 | 276 | 9.0 | 20.0 | 0.00 | 0.00 | 0.00 | 65 | 1010.2 |
| 20260505003204 | 66 | 263 | 10.0 | 17.0 | 0.00 | 0.00 | 0.00 | 64 | 1010.2 |
| 20260505002704 | 66 | 275 | 10.0 | 16.0 | 0.00 | 0.00 | 0.00 | 64 | 1010.2 |
| 20260505001204 | 66 | 263 | 10.0 | 15.0 | 0.00 | 0.00 | 0.00 | 65 | 1010.2 |
| 20260505000705 | 66 | 283 | 10.0 | 20.0 | 0.00 | 0.00 | 0.00 | 65 | 1010.2 |
| 20260505000204 | 66 | 261 | 9.0 | 15.0 | 0.00 | 0.00 | 0.00 | 65 | 1010.2 |
| 20260504235704 | 67 | 255 | 8.0 | 12.0 | 0.00 | 0.00 | 0.00 | 68 | 1010.3 |
| 20260504235205 | 67 | 277 | 9.0 | 14.0 | 0.00 | 0.00 | 0.00 | 67 | 1010.3 |
| 20260504234705 | 67 | 286 | 10.0 | 15.0 | 0.00 | 0.00 | 0.00 | 66 | 1010.3 |
| 20260504234204 | 67 | 288 | 9.0 | 16.0 | 0.00 | 0.00 | 0.00 | 67 | 1010.3 |
| 20260504233705 | 67 | 282 | 10.0 | 15.0 | 0.00 | 0.00 | 0.00 | 65 | 1010.2 |
| 20260504233204 | 67 | 283 | 10.0 | 14.0 | 0.00 | 0.00 | 0.00 | 65 | 1010.2 |
| 20260504232705 | 67 | 271 | 9.0 | 13.0 | 0.00 | 0.00 | 0.00 | 66 | 1010.2 |
| 20260504232205 | 67 | 288 | 10.0 | 16.0 | 0.00 | 0.00 | 0.00 | 67 | 1010.3 |
| 20260504231703 | 67 | 270 | 10.0 | 16.0 | 0.00 | 0.00 | 0.00 | 65 | 1010.3 |
| 20260504231204 | 67 | 261 | 11.0 | 15.0 | 0.00 | 0.00 | 0.00 | 65 | 1010.3 |
| 20260504230704 | 67 | 269 | 7.0 | 12.0 | 0.00 | 0.00 | 0.00 | 67 | 1010.4 |
| 20260504230205 | 67 | 285 | 7.0 | 13.0 | 0.00 | 0.00 | 0.00 | 67 | 1010.4 |
| 20260504225704 | 67 | 300 | 7.0 | 15.0 | 0.00 | 0.00 | 0.00 | 69 | 1010.4 |
| 20260504225205 | 66 | 285 | 9.0 | 15.0 | 0.00 | 0.00 | 0.00 | 69 | 1010.5 |
| 20260504224704 | 66 | 268 | 12.0 | 20.0 | 0.00 | 0.00 | 0.00 | 66 | 1010.7 |
| 20260504224206 | 67 | 257 | 9.0 | 15.0 | 0.00 | 0.00 | 0.00 | 67 | 1010.7 |
| 20260504223704 | 66 | 253 | 11.0 | 17.0 | 0.00 | 0.00 | 0.00 | 66 | 1010.7 |
| 20260504223204 | 67 | 262 | 10.0 | 16.0 | 0.00 | 0.00 | 0.00 | 66 | 1010.6 |
| 20260504222704 | 67 | 260 | 10.0 | 13.0 | 0.00 | 0.00 | 0.00 | 66 | 1010.7 |
| 20260504221204 | 66 | 262 | 10.0 | 16.0 | 0.00 | 0.00 | 0.00 | 67 | 1010.7 |
| 20260504220705 | 65 | 288 | 10.0 | 16.0 | 0.00 | 0.00 | 0.00 | 69 | 1010.7 |
| 20260504220205 | 66 | 266 | 11.0 | 18.0 | 0.00 | 0.00 | 0.00 | 67 | 1010.8 |
| 20260504215205 | 66 | 264 | 11.0 | 16.0 | 0.00 | 0.00 | 0.00 | 66 | 1010.8 |
| 20260504214205 | 65 | 283 | 7.0 | 12.0 | 0.00 | 0.00 | 0.00 | 70 | 1011.0 |
| 20260504213705 | 65 | 293 | 9.0 | 14.0 | 0.00 | 0.00 | 0.00 | 69 | 1011.0 |
| 20260504213204 | 65 | 302 | 10.0 | 15.0 | 0.00 | 0.00 | 0.00 | 68 | 1011.1 |
| 20260504212703 | 66 | 291 | 8.0 | 12.0 | 0.00 | 0.00 | 0.00 | 67 | 1011.1 |
| 20260504212205 | 66 | 286 | 6.0 | 9.0 | 0.00 | 0.00 | 0.00 | 68 | 1011.1 |
| 20260504211703 | 66 | 279 | 5.0 | 12.0 | 0.00 | 0.00 | 0.00 | 68 | 1011.1 |
| 20260504211203 | 67 | 306 | 8.0 | 13.0 | 0.00 | 0.00 | 0.00 | 65 | 1011.1 |
| 20260504210704 | 66 | 297 | 6.0 | 9.0 | 0.00 | 0.00 | 0.00 | 67 | 1011.1 |
| 20260504210204 | 66 | 282 | 6.0 | 10.0 | 0.00 | 0.00 | 0.00 | 66 | 1011.0 |
| 20260504205705 | 66 | 307 | 7.0 | 10.0 | 0.00 | 0.00 | 0.00 | 68 | 1011.0 |
| 20260504205205 | 66 | 292 | 7.0 | 12.0 | 0.00 | 0.00 | 0.00 | 68 | 1011.0 |
| 20260504204704 | 66 | 295 | 7.0 | 10.0 | 0.00 | 0.00 | 0.00 | 65 | 1011.0 |
| 20260504204205 | 66 | 283 | 7.0 | 12.0 | 0.00 | 0.00 | 0.00 | 64 | 1011.0 |
| 20260504203705 | 67 | 282 | 8.0 | 12.0 | 0.00 | 0.00 | 0.00 | 64 | 1011.0 |
| 20260504203205 | 67 | 284 | 8.0 | 12.0 | 0.00 | 0.00 | 0.00 | 64 | 1011.0 |
| 20260504202704 | 66 | 302 | 6.0 | 9.0 | 0.00 | 0.00 | 0.00 | 66 | 1011.0 |
| 20260504202205 | 66 | 281 | 7.0 | 9.0 | 0.00 | 0.00 | 0.00 | 66 | 1011.0 |
| 20260504200705 | 67 | 311 | 7.0 | 10.0 | 0.00 | 0.00 | 0.00 | 64 | 1011.1 |
| 20260504200204 | 67 | 284 | 6.0 | 9.0 | 0.00 | 0.00 | 0.00 | 64 | 1011.0 |
| 20260504195704 | 67 | 274 | 6.0 | 10.0 | 0.00 | 0.00 | 0.00 | 64 | 1011.0 |
| 20260504195206 | 67 | 265 | 6.0 | 10.0 | 0.00 | 0.00 | 0.00 | 64 | 1011.1 |
| 20260504194704 | 67 | 269 | 4.0 | 10.0 | 0.00 | 0.00 | 0.00 | 65 | 1011.0 |
| 20260504194204 | 67 | 307 | 5.0 | 9.0 | 0.00 | 0.00 | 0.00 | 65 | 1011.0 |
| 20260504193705 | 67 | 305 | 6.0 | 10.0 | 0.00 | 0.00 | 0.00 | 63 | 1011.0 |
| 20260504193204 | 68 | 296 | 9.0 | 12.0 | 0.00 | 0.00 | 0.00 | 60 | 1011.0 |
| 20260504192204 | 73 | 294 | 7.0 | 12.0 | 0.00 | 0.00 | 0.00 | 55 | 1010.9 |
| 20260504191203 | 74 | 276 | 6.0 | 9.0 | 0.00 | 0.00 | 0.00 | 53 | 1010.8 |
| 20260504190705 | 74 | 314 | 7.0 | 9.0 | 0.00 | 0.00 | 0.00 | 50 | 1010.8 |
| 20260504190204 | 74 | 274 | 3.0 | 8.0 | 0.00 | 0.00 | 0.00 | 52 | 1010.8 |